User: anonymous   Login
Location: Prague
(50.0830°N, 14.4670°E)
Time: 18:30:17
(UTC+01:00)
Language:

XW-2A - Orbit

View from above orbital plane
View from above orbital plane
View from above satellite
View from above satellite

Ground track
Ground track

The orbit data is extracted from the following two-line orbital elements,

1 40903U 15049E   21337.15883500  .00008078  00000-0  16056-3 0  9995
2 40903  97.2148  31.0861 0013424 115.2826 304.6238 15.47130632348864
Epoch (UTC): 03 December 2021 03:48:43
Eccentricity: 0.0013424
inclination: 97.2148°
perigee height: 416 km
apogee height: 434 km
right ascension of ascending node: 31.0861°
argument of perigee: 115.2826°
revolutions per day: 15.47130632
mean anomaly at epoch: 304.6238°
orbit number at epoch: 34886

The dashed part of the orbit path shows where the satellite is in the earth's shadow,  

DLR